This is the latest recevied weather packets stored in our database for station/object KB3HLL. If no packets are shown the sender has not sent any weather packets the latest 10 day(s).
| Time | Temp. | Humidity | Pressure | Rain* | Wind** | Luminosity | Snow |
|---|---|---|---|---|---|---|---|
| 1777681878 | 5° C | 99% | 1010.8 hPa | 0 mm | - | 0 W/m² | - |
| 1777681578 | 5° C | 99% | 1010.5 hPa | 0 mm | - | 0 W/m² | - |
| 1777681277 | 5° C | 99% | 1009.6 hPa | 0 mm | - | 0 W/m² | - |
| 1777680978 | 5° C | 99% | 1009.6 hPa | 0 mm | - | 1 W/m² | - |
| 1777680678 | 5° C | 99% | 1009.2 hPa | 0.25 mm | - | 1 W/m² | - |
| 1777680379 | 5° C | 99% | 1008.9 hPa | 0.25 mm | - | 1 W/m² | - |
| 1777680077 | 5° C | 99% | 1008.6 hPa | 0.25 mm | - | 3 W/m² | - |
| 1777679777 | 5° C | 99% | 1008.6 hPa | 0.25 mm | - | 4 W/m² | - |
| 1777679478 | 5° C | 99% | 1008.6 hPa | 0.25 mm | - | 5 W/m² | - |
| 1777679178 | 5° C | 99% | 1008.6 hPa | 0.25 mm | - | 6 W/m² | - |
| 1777678877 | 5° C | 99% | 1008.5 hPa | 0.25 mm | - | 9 W/m² | - |
| 1777678577 | 5° C | 99% | 1008.5 hPa | 0.25 mm | - | 4 W/m² | - |
| 1777678277 | 5° C | 99% | 1008.4 hPa | 0.51 mm | - | 8 W/m² | - |
| 1777677978 | 5° C | 99% | 1008.4 hPa | 0.51 mm | - | 10 W/m² | - |
| 1777677678 | 5° C | 99% | 1008.3 hPa | 0.51 mm | - | 10 W/m² | - |
| 1777677378 | 5° C | 99% | 1008.4 hPa | 0.51 mm | - | 15 W/m² | - |
| 1777677078 | 5° C | 99% | 1008.4 hPa | 0.51 mm | - | 23 W/m² | - |
| 1777676778 | 5° C | 99% | 1008.4 hPa | 0.51 mm | - | 25 W/m² | - |
| 1777676478 | 5° C | 99% | 1008.4 hPa | 0.76 mm | - | 13 W/m² | - |
| 1777676177 | 5° C | 99% | 1008.6 hPa | 0.76 mm | - | 15 W/m² | - |
| 1777675877 | 5° C | 99% | 1008.8 hPa | 1.02 mm | - | 18 W/m² | - |
| 1777675578 | 5° C | 99% | 1008.7 hPa | 1.27 mm | - | 19 W/m² | - |
| 1777675277 | 5.56° C | 99% | 1008.7 hPa | 1.27 mm | - | 54 W/m² | - |
| 1777674978 | 5° C | 99% | 1008.7 hPa | 1.27 mm | - | 51 W/m² | - |
| 1777674678 | 5° C | 99% | 1008.8 hPa | 1.52 mm | - | 38 W/m² | - |
* Rain latest hour (hover to see other rain measurements)
** Current wind speed in m/s (hover to see current wind gust speed)